Hauptseite
METAR-TAF:

METAR-TAF

Flughäfen :

Passo della Cisa, Italien

Breite: 44-26N, Länge: 009-56E, Höhe: 1039 m

Beobachtung

Neuester Wetterbericht von vor 11 Stunden und 49 Minuten, um 15:55 UTC
Wind 10 kt aus Nord
Temperatur 18°C
Luftfeuchtigkeit 45%
Luftdruck 1024 hPa
Sichtweite 10 km oder mehr
keine Wolken unter 1500 m und keine Kumulonimbus oder Gewitterwolken

METAR: LIMT 201555Z 36010KT CAVOK 18/06 Q1024 RMK SKC MON LIB VAL NIL VIS MIN 9999

Zeit: 05:44 (03:44 UTC)


TAF: fehlend

Wetterbeobachtungen und Prognosen von mehr als 4000 Flughäfen (METAR und TAF Bericht).

Die verfügbaren Stationen werden durch gelbe und rote Markierungen auf der Karte dargestellt.

Führen Sie die Maus auf sie, um den Namen der Station zu sehen.

Darauf klicken, um die Beobachtung von Wetterbeobachtungen und Prognosen zu sehen.

Um die Karte zu ändern : klicken Sie auf den grünen Tasten mit einem schwarzen Kreuz Zum Vergrößern, auf den grünen Button mit einem Gedankenstrich zu verkleinern, oder auf die grünen Pfeile für benachbarte Karten.


METAR-TAF: